TimeCDT,TemperatureF,Dew PointF,Humidity,Sea Level PressureIn,VisibilityMPH,Wind Direction,Wind SpeedMPH,Gust SpeedMPH,PrecipitationIn,Events,Conditions,WindDirDegrees,DateUTC
12:51 AM,33.8,24.8,70,29.99,10.0,WNW,6.9,-,N/A,,Mostly Cloudy,290,2013-03-12 05:51:00
1:51 AM,33.1,23.0,66,30.04,10.0,West,6.9,-,N/A,,Partly Cloudy,270,2013-03-12 06:51:00
2:51 AM,30.9,23.0,72,30.06,10.0,West,6.9,-,N/A,,Clear,260,2013-03-12 07:51:00
3:51 AM,30.9,23.0,72,30.04,10.0,West,9.2,-,N/A,,Clear,280,2013-03-12 08:51:00
4:51 AM,30.9,23.0,72,30.04,10.0,West,10.4,-,N/A,,Partly Cloudy,270,2013-03-12 09:51:00
5:51 AM,30.9,23.0,72,30.08,10.0,West,10.4,-,N/A,,Scattered Clouds,280,2013-03-12 10:51:00
6:51 AM,30.0,21.9,72,30.09,10.0,West,9.2,-,N/A,,Mostly Cloudy,280,2013-03-12 11:51:00
7:51 AM,30.0,23.0,75,30.09,10.0,West,8.1,-,N/A,,Mostly Cloudy,280,2013-03-12 12:51:00
8:51 AM,33.8,21.2,60,30.10,10.0,West,9.2,-,N/A,,Scattered Clouds,280,2013-03-12 13:51:00
9:51 AM,36.0,23.0,59,30.14,10.0,West,10.4,-,N/A,,Mostly Cloudy,280,2013-03-12 14:51:00
10:51 AM,39.9,23.0,51,30.14,10.0,West,10.4,-,N/A,,Scattered Clouds,280,2013-03-12 15:51:00
11:51 AM,44.1,24.1,45,30.13,10.0,West,10.4,18.4,N/A,,Scattered Clouds,280,2013-03-12 16:51:00
12:51 PM,46.9,25.0,42,30.13,10.0,West,13.8,-,N/A,,Scattered Clouds,260,2013-03-12 17:51:00
1:51 PM,50.0,23.0,35,30.10,10.0,West,15.0,23.0,N/A,,Scattered Clouds,270,2013-03-12 18:51:00
2:51 PM,48.0,23.0,37,30.09,10.0,NW,16.1,23.0,N/A,,Scattered Clouds,310,2013-03-12 19:51:00
3:51 PM,48.0,25.0,41,30.09,10.0,WNW,18.4,29.9,N/A,,Mostly Cloudy,300,2013-03-12 20:51:00
4:51 PM,46.9,24.1,41,30.11,10.0,WNW,21.9,33.4,N/A,,Mostly Cloudy,290,2013-03-12 21:51:00
5:51 PM,45.0,26.1,48,30.12,10.0,WNW,19.6,33.4,N/A,,Scattered Clouds,300,2013-03-12 22:51:00
6:51 PM,41.0,24.1,51,30.16,10.0,WNW,19.6,32.2,N/A,,Scattered Clouds,300,2013-03-12 23:51:00
7:51 PM,39.0,21.9,50,30.18,10.0,WNW,13.8,23.0,N/A,,Partly Cloudy,300,2013-03-13 00:51:00
8:51 PM,37.4,21.2,52,30.16,10.0,WNW,10.4,-,N/A,,Partly Cloudy,300,2013-03-13 01:51:00
9:51 PM,37.0,23.0,57,30.20,10.0,WNW,13.8,25.3,N/A,,Scattered Clouds,300,2013-03-13 02:51:00
10:51 PM,37.0,23.0,57,30.22,10.0,WNW,15.0,24.2,N/A,,Mostly Cloudy,300,2013-03-13 03:51:00
11:51 PM,35.6,19.4,52,30.21,10.0,NW,19.6,26.5,N/A,,Mostly Cloudy,310,2013-03-13 04:51:00